Vorticity
10 12 15 17 17 17 16 13 12 11 10 10 10 11 12 13 13 12 11 10 9 9 8 8 8 9 9 9 9 9 10 10 11 10 9 8 7 6 6 5 5 6 5 5 5 5 6 7 8 10 11 10 9 8 8 8 8 9 9 10 10 12 18 18 16 17 12 4 -1 8 16 -1 -6 5 6 7 6 2 3 2 4 7 5 7 10 9 8 7
8 10 13 15 16 16 16 15 13 12 11 10 10 11 11 12 13 13 13 11 10 9 8 8 8 8 8 9 10 11 12 12 11 10 9 8 7 7 6 5 5 5 4 5 5 5 6 6 8 10 12 10 9 9 8 8 8 9 10 9 11 14 15 11 12 13 13 9 -6 -1 14 3 -8 -3 2 2 3 6 3 1 4 1 -2 3 7 6 9 12
8 8 11 13 14 16 16 15 13 11 10 10 10 10 11 12 13 14 14 13 12 10 9 9 9 9 9 11 12 13 12 12 11 10 9 8 7 6 6 5 5 5 5 6 6 7 6 6 8 8 10 11 11 10 9 9 9 10 10 11 14 17 13 6 11 11 8 7 -4 -5 4 8 2 -4 2 3 1 6 4 2 3 2 1 5 7 5 9 13
8 7 8 10 13 16 16 15 13 12 10 9 9 10 11 13 13 14 15 14 13 12 11 10 10 11 13 14 14 14 13 13 11 10 8 7 7 6 6 6 6 6 7 7 8 8 8 8 8 8 9 9 10 10 10 9 9 10 10 12 7 5 14 14 14 10 5 7 3 -4 -6 3 5 -2 4 3 -2 0 2 2 -0 4 9 10 11 7 7 9
7 7 7 9 12 16 17 15 13 11 11 10 10 11 12 12 12 12 13 13 12 12 11 11 12 13 14 14 13 14 13 12 11 10 9 9 9 9 9 9 9 9 9 9 10 10 10 9 9 10 10 10 11 11 12 10 9 10 10 11 4 4 15 12 9 9 7 6 4 4 -1 -2 -2 -1 6 3 -1 1 1 3 2 6 9 10 15 12 8 6
8 8 7 7 11 15 17 15 13 11 10 10 11 11 11 10 10 10 10 11 11 11 10 10 11 11 12 12 11 12 12 12 13 12 11 11 12 12 12 12 12 11 11 11 10 11 11 11 11 10 9 10 9 8 11 12 12 12 10 8 7 14 12 1 4 6 7 8 4 6 4 -1 -1 0 4 0 -0 4 5 7 6 5 9 14 18 16 14 12
10 9 8 7 8 13 17 15 11 10 9 10 10 11 10 9 8 9 9 9 9 9 9 9 9 10 11 12 11 12 12 12 13 13 13 13 12 13 12 13 13 12 12 11 11 11 10 11 11 9 9 10 8 8 8 7 10 10 11 11 6 7 2 -1 7 5 8 9 2 3 2 2 5 2 2 1 2 6 8 10 11 12 15 18 18 19 19 17
10 10 10 8 7 10 15 16 12 9 9 9 10 10 9 8 8 8 9 8 8 8 8 9 9 10 10 11 12 12 12 12 12 13 13 13 13 12 12 12 12 13 13 12 12 11 11 11 9 8 8 6 5 7 6 7 9 8 10 12 10 8 3 6 9 6 9 4 -1 2 0 3 4 -0 1 4 7 12 15 17 18 17 14 10 10 13 12 10
9 9 10 10 8 8 11 14 15 11 9 9 9 9 8 8 8 7 8 7 7 7 7 8 9 9 9 10 11 11 12 13 12 13 13 13 13 12 12 12 12 12 12 11 11 9 10 9 7 7 7 6 8 9 9 14 14 8 8 7 9 12 7 10 12 7 7 -1 1 12 11 11 7 1 2 7 15 19 22 20 14 9 7 6 7 9 5 4
8 8 8 9 9 8 8 10 14 14 12 10 9 9 8 7 7 7 7 8 7 7 7 7 8 8 8 9 9 9 11 11 11 12 13 12 12 13 13 12 13 13 12 12 12 12 12 10 12 15 14 17 21 18 15 16 14 9 8 4 5 9 6 9 11 10 15 6 3 13 16 15 12 9 9 11 15 16 15 10 5 3 4 5 6 6 4 4
7 7 7 7 7 8 8 8 10 12 13 13 11 9 8 7 7 7 7 8 8 8 7 7 8 8 8 8 7 9 10 10 10 11 12 12 13 14 13 13 13 13 13 13 14 15 16 17 21 18 15 18 19 19 18 16 15 12 11 10 5 7 6 6 11 19 29 22 8 9 13 9 3 0 2 6 8 6 6 4 3 2 4 8 8 6 6 7
6 6 7 6 6 6 7 8 8 9 10 12 13 12 10 9 7 7 6 7 8 8 8 8 7 7 8 8 7 8 8 9 10 10 11 13 12 12 12 13 13 13 15 16 15 12 12 15 16 10 7 13 13 14 18 18 18 15 19 22 9 6 7 7 15 20 22 20 11 11 15 15 7 -0 3 8 7 6 5 4 4 3 5 9 8 5 6 8
6 6 6 5 6 6 6 6 7 7 8 8 10 12 12 12 10 9 7 7 7 7 8 8 8 7 8 8 7 8 8 8 9 9 11 12 10 9 10 12 13 14 14 15 15 13 12 11 11 10 7 9 9 8 11 13 15 15 24 30 17 10 12 9 12 11 8 10 8 7 10 16 15 8 8 7 5 5 5 5 6 6 6 6 5 4 5 6
6 7 6 6 5 5 5 5 5 6 7 7 8 8 10 12 12 12 10 9 8 7 8 8 8 7 7 6 5 5 6 6 7 8 7 8 8 8 8 10 11 12 11 11 11 11 11 8 8 10 6 5 5 4 6 6 7 8 13 19 15 11 11 8 7 6 6 9 9 7 6 8 11 7 3 3 4 3 3 6 8 7 7 7 6 5 5 5
6 7 6 7 6 6 5 5 5 5 6 7 7 7 8 9 11 12 13 12 11 9 8 8 8 7 7 6 5 6 6 6 6 6 5 5 6 6 5 5 6 7 7 7 8 7 5 5 6 6 4 5 5 4 4 4 3 4 3 5 7 7 5 4 7 5 4 6 9 10 7 7 8 7 5 6 6 5 4 5 7 7 7 7 6 5 5 5
6 6 6 6 6 5 5 5 5 5 5 6 7 8 8 7 8 10 12 13 13 12 10 9 8 7 7 6 6 6 6 5 5 4 5 5 5 4 3 3 4 4 5 4 4 4 4 4 4 4 4 4 5 4 3 3 3 3 2 2 3 3 2 2 4 4 4 5 6 8 8 8 6 4 5 7 7 6 7 6 4 6 6 5 7 7 8 8
5 6 6 6 5 4 5 5 5 6 6 6 6 7 8 9 9 7 8 10 12 13 12 11 9 8 7 7 9 8 6 5 5 5 6 5 4 4 3 3 2 2 3 3 3 3 3 3 3 3 4 3 4 5 4 5 5 4 4 4 3 2 2 3 3 3 5 5 5 6 6 10 12 10 8 8 11 10 10 9 5 6 7 5 7 8 9 10
5 6 5 5 4 4 5 5 6 7 7 7 7 6 7 10 10 9 7 6 8 9 11 13 12 11 11 11 11 9 7 8 8 8 8 6 5 4 3 2 3 3 3 3 2 3 3 3 3 2 2 4 4 4 5 4 2 2 3 3 4 6 6 7 6 5 8 8 8 7 5 7 10 12 10 6 11 16 14 11 9 9 9 7 9 10 9 9
5 5 5 4 4 5 6 6 7 8 8 8 8 7 7 8 9 11 10 8 8 7 6 8 8 9 12 14 12 8 8 8 8 9 8 8 7 6 6 4 4 4 4 3 3 4 4 4 3 3 4 5 4 4 4 3 2 4 5 6 8 9 8 7 8 7 8 10 10 10 10 8 4 8 12 7 6 12 14 14 12 10 10 9 9 8 7 7
5 5 4 4 5 6 7 7 8 8 8 8 8 9 8 7 6 7 9 10 10 10 8 7 7 6 8 9 9 10 10 10 11 10 8 7 7 7 8 7 7 7 6 5 5 5 6 6 6 6 7 7 6 5 5 6 7 7 8 9 9 10 8 7 7 7 8 11 10 6 7 9 6 3 5 6 5 4 5 7 8 7 6 4 3 4 6 6
5 5 5 6 7 7 7 7 6 6 6 7 7 8 9 8 6 5 6 7 9 11 10 10 9 9 9 7 7 7 7 9 10 10 9 9 9 9 9 8 8 8 7 7 7 8 7 8 8 7 7 7 7 7 8 8 7 6 6 6 7 7 7 6 7 9 9 11 7 2 4 7 5 3 1 3 5 4 5 6 7 5 4 4 4 4 7 8
5 6 6 7 6 6 6 5 5 5 5 6 6 6 7 8 7 7 7 6 6 7 7 9 10 10 10 10 9 8 7 8 8 9 9 8 8 9 9 10 10 8 7 7 7 7 6 6 6 5 5 6 7 6 7 7 5 5 5 5 6 5 6 7 8 8 6 5 2 -1 3 7 3 3 3 2 1 3 8 12 11 6 2 3 5 5 7 8
6 6 7 7 6 7 6 6 7 7 7 6 6 6 6 6 6 7 8 7 7 6 5 5 6 8 7 7 8 10 11 11 11 12 10 7 7 8 8 9 9 8 8 8 8 7 7 6 6 5 5 5 6 5 5 6 6 5 5 6 7 6 7 7 6 7 5 3 0 -5 -2 6 6 2 1 -1 -2 -0 6 14 17 13 8 4 4 6 6 5
7 7 8 8 8 9 10 11 11 11 11 10 9 9 8 8 7 7 8 9 8 8 8 7 6 7 8 7 6 8 10 10 11 12 11 12 11 11 11 10 9 9 7 7 8 8 7 7 7 6 7 6 6 6 5 6 7 8 7 6 7 7 8 9 9 5 3 2 1 -1 -4 -2 3 4 4 3 -1 -1 4 6 6 7 9 9 8 6 5 4
9 10 11 12 13 14 15 16 17 16 16 16 16 15 14 13 11 10 10 9 8 8 9 10 10 9 8 8 10 10 8 8 10 8 8 12 15 16 14 14 14 13 11 7 5 6 7 7 6 6 7 8 8 8 8 8 9 9 10 10 10 8 7 11 11 5 4 2 -1 3 1 -3 4 4 2 4 2 5 9 6 5 10 14 13 9 7 5 6
13 14 14 15 16 17 17 17 17 17 17 19 20 19 19 18 18 17 15 14 12 10 9 10 10 9 10 11 12 12 7 7 8 7 8 9 9 11 12 14 15 16 14 9 6 9 9 7 6 8 8 7 9 10 9 10 10 10 10 10 11 12 12 12 11 6 4 2 -2 2 1 -3 4 6 3 6 8 10 11 10 12 17 20 19 16 12 8 9
15 16 15 16 15 14 15 14 14 15 15 15 14 15 16 16 19 19 18 19 20 20 18 17 15 12 12 11 10 10 9 9 7 5 10 9 6 9 12 12 13 16 15 12 15 16 14 13 10 9 8 7 8 8 10 13 12 11 12 11 9 7 6 5 8 8 4 5 3 2 -0 -6 0 17 26 26 19 13 13 19 19 17 19 18 15 14 9 10
14 14 12 12 11 11 12 10 11 12 11 9 9 11 11 11 13 14 17 19 20 21 14 13 16 13 11 11 11 12 12 13 13 11 11 11 10 8 6 7 7 9 10 12 19 19 16 19 16 14 14 13 12 12 17 18 10 10 15 19 18 13 8 4 5 8 4 3 4 7 11 8 15 32 35 26 19 16 16 17 15 14 18 17 16 16 10 12
12 11 11 11 10 11 11 11 11 10 10 10 10 12 13 15 15 14 18 16 11 12 7 7 13 12 12 13 12 12 12 13 15 16 15 13 12 8 4 5 6 8 10 10 13 14 16 18 17 18 18 14 13 14 19 19 11 12 13 13 18 22 23 18 15 15 10 12 24 32 27 17 20 27 20 15 19 24 21 11 9 12 9 8 13 12 8 8
12 12 12 12 11 11 11 11 12 11 11 10 10 10 12 15 14 11 16 12 4 6 8 9 10 9 11 12 10 11 12 15 10 6 12 15 15 16 13 10 8 9 11 11 11 9 9 11 11 13 14 12 11 11 13 11 8 10 8 5 8 14 19 21 21 18 16 22 27 26 19 10 15 20 13 13 18 19 14 9 13 14 5 4 11 11 7 6
12 12 12 11 9 10 10 10 12 10 8 6 4 5 7 8 6 7 12 10 8 8 6 5 6 6 8 7 8 8 9 16 12 3 10 13 11 15 16 14 13 10 8 10 10 5 4 7 8 8 9 10 6 3 6 5 4 6 6 8 11 17 18 16 17 14 15 21 14 9 11 7 12 20 15 10 9 7 10 13 12 12 11 9 11 11 7 8
10 9 8 8 9 9 9 9 8 5 3 2 1 3 5 4 2 5 7 6 8 7 1 2 3 5 7 6 5 6 8 14 12 8 12 12 9 11 12 12 11 9 10 12 10 6 7 8 8 8 9 10 7 7 11 13 16 15 11 16 21 24 19 7 5 9 9 8 4 5 8 5 10 21 22 15 8 5 12 16 12 12 15 8 3 6 5 3
10 8 8 8 8 8 6 5 4 4 4 2 2 3 2 2 3 3 4 6 5 0 -2 0 -1 1 5 7 7 6 7 9 7 8 11 10 10 14 18 17 11 10 13 14 11 10 11 8 6 8 7 8 9 8 10 13 17 14 9 15 17 12 9 5 5 10 11 11 10 5 3 5 8 12 20 19 6 3 11 12 5 4 5 -2 -4 0 1 -1
10 10 9 8 7 6 5 6 6 5 5 3 3 3 -0 3 6 2 3 9 4 -3 -0 0 -3 0 2 7 10 2 3 11 8 6 7 6 7 10 14 12 7 12 14 11 11 9 8 7 6 7 6 9 12 9 8 8 10 12 8 7 7 5 8 9 7 9 10 11 11 6 2 1 -0 5 20 17 -1 -4 9 15 11 8 4 -4 -4 3 7 5
10 11 10 6 5 5 4 5 6 5 4 3 3 1 -1 3 5 1 4 12 6 -2 2 2 -1 2 2 6 9 -1 5 17 7 2 5 3 2 2 2 -2 -3 10 14 10 11 9 8 8 7 6 4 7 8 3 6 7 5 11 11 5 5 9 8 4 2 5 5 5 6 5 4 5 8 12 16 15 5 -5 -3 8 12 11 9 2 3 12 10 3
7 8 9 5 3 3 2 3 3 4 4 4 3 1 -1 2 3 1 1 6 6 -2 0 3 -0 1 2 6 9 3 8 11 2 8 12 2 0 0 -1 -0 2 9 10 7 8 7 6 7 8 11 8 6 5 -1 1 6 4 8 14 11 5 2 2 3 4 5 6 6 4 0 4 12 16 8 -1 5 11 3 -1 6 6 -3 -3 2 8 9 -2 -5
9 7 6 5 5 4 3 3 2 3 4 5 5 1 0 1 1 2 -3 -3 1 1 1 2 -1 1 2 3 7 6 9 7 5 15 14 5 9 6 1 3 4 5 4 2 3 0 1 5 6 13 16 10 4 3 10 16 11 4 5 8 6 3 6 10 9 6 4 2 -1 0 7 14 12 5 2 4 8 7 3 4 2 -7 -8 0 4 0 -5 -3
12 13 9 6 9 10 9 8 6 6 6 4 3 1 0 1 0 1 -0 -2 2 3 1 0 -1 3 3 2 5 6 8 8 7 12 11 9 12 8 5 8 4 4 5 3 2 -0 3 7 3 9 21 18 8 4 9 12 5 -2 -4 -1 2 1 3 7 8 8 5 2 5 9 8 9 9 7 6 3 2 5 2 -1 0 -3 -1 5 5 5 9 8
3 10 10 7 7 7 8 9 7 6 6 2 2 2 1 1 1 1 1 1 1 1 1 0 0 2 3 4 7 7 7 6 7 12 11 7 6 6 9 11 7 7 8 7 6 -1 -1 3 -1 -2 7 14 15 10 5 3 -0 2 6 6 5 3 2 3 1 1 2 -0 1 3 1 5 8 6 7 7 5 6 4 -0 -4 -7 2 12 11 11 12 9
-3 -1 3 5 4 3 4 5 3 1 3 2 1 2 1 0 2 3 3 2 -0 0 3 4 3 4 6 7 7 6 6 7 9 13 13 8 5 4 5 5 8 10 8 7 8 3 -2 -1 -1 -3 -5 -1 6 4 1 2 -2 -3 -1 1 6 12 12 7 2 1 4 2 -2 -3 -2 3 5 3 8 13 15 15 12 8 4 4 13 16 10 6 3 4
1 -2 -2 -1 -0 1 2 4 2 -0 1 2 1 2 3 1 2 3 2 2 1 1 4 5 5 8 10 9 7 6 7 9 9 12 16 16 13 8 2 1 5 9 6 2 3 5 3 -2 -3 -0 -1 -2 -2 -7 -8 -1 1 -1 -1 0 2 6 9 6 3 5 7 5 5 2 -1 6 14 11 7 12 17 16 12 11 14 14 12 8 3 1 4 9
2 3 2 -2 -2 1 0 0 2 1 1 2 3 4 4 1 1 1 0 2 5 5 5 5 6 8 9 8 9 9 7 8 10 10 13 18 21 18 12 5 3 5 5 1 1 2 1 -2 -2 -0 1 1 2 -0 0 5 8 10 14 13 6 4 7 5 1 2 2 1 5 4 -1 6 16 10 1 1 5 7 8 12 15 11 6 5 4 3 5 10
2 4 2 -1 2 3 0 -0 3 3 2 2 3 5 4 1 2 3 4 5 6 5 7 8 7 7 8 9 10 11 9 9 11 12 13 17 20 19 17 15 11 7 5 4 3 2 1 2 5 7 8 8 9 9 10 10 6 5 8 9 6 5 8 8 4 4 3 2 3 4 4 8 12 11 9 5 1 -1 -0 4 8 4 -0 0 2 1 1 4
5 5 2 2 5 5 3 3 2 3 4 3 3 5 3 2 3 3 5 6 6 7 8 8 8 9 9 10 10 11 11 10 10 12 14 17 18 16 15 17 18 16 13 10 7 6 6 6 7 9 9 12 14 13 14 14 12 11 9 6 8 11 12 12 11 8 8 9 6 3 3 4 4 7 11 12 9 5 1 4 6 2 0 2 -3 -6 -3 -0
6 6 4 4 5 4 5 5 2 2 4 2 4 6 5 7 7 6 7 8 6 7 8 9 11 11 10 11 12 11 11 10 10 13 15 17 18 17 14 12 15 17 15 13 10 8 7 7 8 10 9 9 11 10 11 15 17 18 12 5 5 8 9 12 13 10 10 11 9 5 2 2 3 5 8 10 9 7 5 7 6 1 0 -5 -16 -9 8 11
4 3 4 6 6 4 4 4 3 4 4 1 1 3 5 7 9 9 10 9 6 7 12 13 12 10 9 11 12 12 12 13 12 14 15 16 18 20 21 17 15 15 14 13 13 11 10 11 13 14 13 12 12 11 10 14 17 17 13 7 6 8 11 13 13 11 12 12 12 10 9 10 7 4 8 13 14 11 10 9 8 8 6 -4 -7 9 18 9
4 2 4 6 7 7 6 7 5 3 5 4 1 1 2 2 4 6 8 8 8 12 16 13 11 12 13 14 14 11 13 16 15 13 11 12 14 17 20 19 15 14 12 10 10 10 10 12 13 12 12 16 20 18 15 16 17 17 15 12 11 13 14 11 7 7 9 8 6 7 9 13 9 0 -0 5 6 4 5 5 4 7 11 13 15 10 -5 -10
6 5 5 4 5 6 7 8 7 6 8 7 5 5 5 4 5 7 8 10 13 15 13 9 10 12 12 14 15 12 12 13 14 12 9 9 12 14 16 17 17 15 12 11 13 12 11 12 14 11 6 7 13 15 15 15 14 14 16 16 12 10 8 7 8 9 6 2 5 8 6 6 8 5 3 4 3 0 2 5 4 2 5 10 7 -7 -16 -6
7 7 7 5 6 6 6 7 8 8 8 7 8 9 8 8 10 10 10 12 13 12 11 10 10 10 10 11 11 9 8 8 9 9 8 8 11 12 12 13 13 13 13 11 11 13 12 11 10 8 5 5 9 10 10 13 14 12 12 14 13 11 9 10 14 15 11 6 9 11 9 6 8 8 5 5 5 4 5 7 8 6 6 6 4 2 3 7
8 9 9 9 9 8 7 7 7 7 6 7 8 10 9 10 11 11 13 14 13 13 15 14 11 8 7 6 6 7 7 8 9 8 8 10 13 12 11 10 8 9 10 9 8 9 8 8 6 5 5 6 8 5 1 7 15 13 9 12 14 15 14 14 15 17 18 16 12 9 9 10 10 8 7 6 6 7 7 6 6 7 7 9 10 12 13 12
10 10 10 11 11 10 9 9 8 8 7 8 9 10 12 12 12 13 14 13 12 13 12 10 7 7 7 6 7 9 9 9 9 7 7 10 11 9 8 9 9 7 6 7 8 7 6 10 12 9 5 3 3 2 -0 3 7 5 6 10 11 12 15 15 16 16 15 14 15 13 11 10 10 9 8 8 9 9 8 8 9 9 9 11 12 11 10 10
10 10 9 10 11 10 9 10 9 9 9 10 12 12 13 13 12 12 11 9 9 10 9 8 9 10 9 8 7 7 8 7 6 7 8 9 9 7 6 8 9 9 8 8 8 9 11 12 9 6 7 6 5 4 3 4 6 7 9 10 9 11 13 12 14 16 15 13 15 15 13 12 12 12 10 10 10 10 9 9 9 9 9 10 9 7 8 7
Height
5771 5771 5770 5769 5768 5768 5767 5767 5767 5767 5767 5767 5767 5767 5767 5768 5768 5768 5769 5769 5770 5770 5771 5771 5772 5772 5773 5773 5773 5774 5774 5775 5775 5776 5777 5778 5779 5779 5780 5781 5782 5783 5783 5784 5785 5785 5786 5787 5787 5788 5789 5790 5791 5791 5792 5793 5794 5796 5798 5800 5802 5803 5801 5798 5799 5800 5801 5802 5802 5803 5805 5806 5805 5805 5807 5808 5808 5810 5811 5811 5814 5818 5819 5819 5819 5821 5824 5824
5769 5769 5768 5767 5766 5765 5765 5765 5765 5765 5765 5765 5765 5765 5765 5765 5766 5766 5766 5767 5767 5768 5769 5769 5770 5770 5771 5771 5771 5772 5772 5772 5773 5774 5774 5775 5776 5777 5778 5778 5779 5780 5781 5782 5783 5783 5784 5785 5786 5786 5787 5788 5788 5789 5790 5791 5792 5794 5796 5798 5800 5798 5795 5794 5796 5797 5799 5799 5799 5801 5802 5802 5803 5804 5804 5805 5805 5806 5808 5808 5811 5815 5818 5817 5816 5818 5820 5821
5768 5767 5766 5765 5764 5763 5763 5763 5763 5763 5763 5763 5763 5763 5763 5763 5764 5764 5764 5765 5765 5766 5767 5768 5768 5768 5768 5769 5769 5769 5769 5770 5770 5771 5772 5773 5774 5774 5775 5776 5777 5778 5779 5779 5780 5781 5782 5783 5783 5784 5785 5786 5786 5787 5788 5789 5791 5792 5794 5797 5796 5793 5791 5792 5794 5795 5796 5798 5799 5799 5799 5800 5801 5801 5801 5802 5802 5803 5804 5806 5809 5813 5815 5815 5814 5814 5816 5817
5766 5765 5764 5763 5762 5761 5761 5761 5761 5761 5761 5761 5761 5762 5762 5762 5762 5762 5762 5763 5763 5764 5765 5766 5766 5766 5766 5766 5767 5767 5767 5768 5768 5769 5770 5770 5771 5772 5772 5773 5774 5775 5776 5777 5777 5778 5779 5780 5781 5782 5783 5783 5784 5785 5786 5787 5788 5790 5792 5793 5791 5789 5790 5792 5793 5793 5794 5796 5797 5797 5797 5797 5798 5797 5797 5800 5801 5801 5803 5804 5808 5810 5811 5811 5811 5811 5812 5814
5765 5764 5763 5762 5761 5760 5759 5759 5759 5759 5759 5760 5760 5760 5760 5760 5760 5761 5761 5761 5762 5763 5764 5764 5764 5764 5764 5764 5764 5765 5765 5765 5766 5767 5767 5768 5769 5769 5770 5771 5772 5772 5773 5774 5775 5776 5777 5778 5779 5780 5780 5781 5782 5783 5784 5785 5786 5788 5790 5789 5787 5788 5789 5790 5791 5791 5793 5793 5794 5795 5795 5795 5795 5794 5794 5797 5800 5801 5802 5804 5806 5808 5808 5808 5808 5808 5810 5811
5764 5763 5762 5761 5760 5759 5758 5758 5757 5758 5758 5758 5759 5759 5759 5759 5759 5759 5760 5760 5761 5762 5762 5762 5762 5763 5762 5762 5762 5763 5763 5763 5764 5765 5765 5766 5766 5767 5768 5768 5769 5770 5770 5771 5772 5773 5774 5775 5776 5777 5778 5779 5780 5781 5782 5783 5784 5785 5786 5786 5785 5786 5787 5788 5789 5790 5790 5791 5791 5792 5792 5792 5793 5792 5792 5795 5798 5799 5801 5802 5804 5806 5806 5805 5805 5806 5807 5809
5762 5761 5761 5760 5759 5758 5757 5756 5756 5756 5757 5757 5757 5757 5758 5758 5758 5758 5759 5759 5760 5760 5760 5761 5761 5761 5761 5760 5761 5761 5761 5761 5762 5763 5763 5764 5764 5765 5765 5766 5766 5767 5768 5769 5770 5771 5772 5773 5773 5774 5775 5776 5777 5778 5779 5780 5781 5782 5783 5783 5784 5784 5785 5786 5787 5788 5788 5788 5788 5789 5790 5791 5790 5790 5791 5794 5796 5797 5798 5799 5801 5803 5803 5803 5804 5805 5806 5807
5761 5760 5759 5759 5758 5757 5756 5756 5755 5755 5756 5756 5756 5756 5756 5757 5757 5757 5757 5758 5759 5759 5759 5759 5759 5759 5759 5759 5759 5759 5760 5760 5760 5761 5761 5762 5762 5763 5763 5764 5764 5765 5766 5767 5767 5768 5769 5770 5770 5771 5772 5773 5774 5775 5776 5777 5778 5779 5780 5781 5781 5782 5783 5784 5785 5786 5785 5785 5787 5788 5789 5789 5788 5788 5790 5793 5794 5794 5795 5796 5797 5798 5798 5800 5802 5803 5804 5804
5760 5759 5758 5758 5757 5756 5756 5755 5755 5755 5755 5755 5755 5755 5755 5755 5756 5756 5756 5757 5757 5758 5758 5758 5758 5758 5758 5758 5758 5758 5758 5758 5759 5759 5759 5760 5760 5761 5761 5762 5762 5763 5764 5764 5765 5766 5767 5767 5767 5768 5769 5770 5771 5772 5773 5775 5775 5776 5777 5778 5779 5780 5781 5782 5783 5783 5783 5784 5786 5787 5787 5787 5786 5785 5788 5790 5792 5792 5793 5794 5793 5793 5793 5797 5799 5800 5802 5803
5759 5759 5758 5757 5756 5756 5755 5755 5754 5754 5754 5754 5754 5754 5754 5754 5755 5755 5755 5756 5756 5756 5757 5757 5756 5756 5756 5757 5757 5757 5757 5757 5757 5758 5758 5758 5759 5759 5760 5760 5761 5761 5762 5762 5763 5764 5765 5765 5766 5767 5768 5770 5771 5771 5772 5773 5773 5774 5775 5775 5776 5777 5779 5780 5780 5782 5783 5784 5785 5786 5786 5785 5784 5784 5785 5788 5789 5791 5792 5791 5789 5788 5790 5794 5796 5797 5799 5801
5759 5758 5757 5756 5756 5755 5754 5754 5754 5753 5753 5753 5753 5753 5753 5753 5753 5754 5754 5755 5755 5755 5755 5755 5755 5755 5755 5756 5756 5756 5756 5756 5756 5757 5757 5757 5757 5758 5758 5759 5759 5760 5760 5761 5762 5763 5763 5764 5765 5766 5768 5769 5769 5769 5770 5771 5772 5772 5773 5773 5774 5775 5776 5777 5779 5782 5784 5784 5784 5783 5784 5784 5783 5783 5783 5785 5787 5788 5789 5787 5785 5786 5789 5791 5792 5793 5796 5798
5758 5757 5756 5756 5755 5754 5754 5753 5753 5753 5752 5752 5752 5752 5752 5752 5752 5753 5753 5753 5754 5754 5754 5754 5754 5754 5755 5755 5755 5755 5755 5756 5756 5756 5756 5756 5756 5757 5757 5758 5758 5759 5759 5760 5761 5761 5762 5763 5764 5765 5766 5767 5767 5768 5769 5770 5770 5771 5772 5772 5772 5773 5774 5776 5779 5781 5782 5782 5782 5781 5782 5782 5783 5783 5781 5781 5783 5784 5785 5783 5783 5786 5788 5788 5788 5790 5792 5794
5757 5756 5756 5755 5755 5754 5753 5753 5752 5752 5752 5751 5751 5751 5751 5751 5751 5751 5752 5752 5752 5752 5753 5753 5753 5753 5754 5754 5754 5754 5754 5755 5755 5755 5755 5756 5756 5756 5756 5757 5757 5758 5758 5759 5759 5759 5760 5761 5762 5764 5765 5765 5766 5766 5767 5768 5768 5769 5771 5771 5771 5771 5773 5776 5778 5779 5779 5779 5780 5780 5781 5782 5782 5782 5780 5778 5778 5780 5780 5781 5783 5786 5786 5786 5786 5787 5789 5791
5756 5756 5755 5754 5754 5753 5753 5752 5752 5751 5751 5751 5750 5750 5750 5750 5750 5750 5750 5750 5751 5751 5752 5752 5752 5752 5752 5752 5752 5753 5753 5754 5754 5754 5755 5755 5755 5755 5755 5756 5756 5757 5757 5758 5758 5758 5759 5760 5762 5763 5763 5764 5764 5764 5765 5766 5766 5767 5769 5770 5770 5771 5773 5775 5774 5776 5776 5776 5778 5779 5779 5780 5779 5779 5779 5777 5776 5776 5776 5779 5783 5784 5784 5785 5784 5785 5786 5788
5755 5755 5754 5754 5753 5753 5752 5751 5751 5750 5750 5750 5749 5749 5749 5748 5748 5748 5748 5749 5749 5750 5750 5750 5750 5750 5751 5751 5752 5752 5752 5752 5753 5753 5754 5754 5754 5754 5754 5755 5755 5756 5756 5757 5757 5757 5759 5760 5761 5762 5761 5762 5763 5763 5764 5765 5766 5766 5767 5768 5769 5770 5772 5772 5772 5773 5774 5774 5775 5776 5776 5777 5776 5777 5777 5777 5775 5774 5774 5776 5780 5782 5782 5783 5782 5783 5784 5785
5754 5754 5753 5753 5752 5752 5751 5750 5750 5749 5749 5749 5748 5748 5748 5747 5747 5747 5747 5747 5748 5748 5748 5748 5749 5749 5749 5750 5750 5751 5751 5750 5751 5752 5752 5752 5753 5753 5753 5754 5754 5755 5755 5756 5756 5757 5758 5759 5760 5760 5760 5762 5762 5762 5763 5764 5764 5765 5766 5767 5768 5769 5769 5769 5769 5770 5770 5771 5772 5772 5773 5774 5774 5774 5775 5774 5773 5774 5774 5774 5777 5778 5778 5779 5779 5780 5781 5782
5753 5752 5752 5751 5751 5750 5750 5749 5749 5748 5748 5748 5747 5747 5747 5746 5746 5746 5746 5746 5746 5746 5746 5747 5747 5747 5747 5748 5749 5749 5749 5749 5749 5750 5750 5751 5751 5752 5752 5753 5753 5754 5754 5755 5755 5756 5757 5757 5758 5758 5759 5760 5760 5761 5762 5762 5762 5763 5765 5765 5765 5766 5766 5766 5765 5766 5767 5768 5769 5770 5771 5772 5771 5771 5772 5772 5771 5772 5773 5773 5775 5776 5775 5775 5776 5777 5778 5779
5751 5751 5751 5750 5749 5749 5748 5748 5747 5747 5746 5746 5746 5746 5746 5745 5745 5745 5744 5744 5745 5745 5745 5745 5745 5745 5746 5747 5748 5747 5747 5747 5748 5748 5748 5749 5750 5750 5751 5751 5752 5752 5753 5753 5754 5754 5755 5755 5756 5756 5757 5758 5758 5760 5760 5760 5760 5761 5762 5763 5763 5764 5763 5763 5763 5763 5764 5766 5766 5767 5769 5769 5767 5767 5769 5770 5769 5769 5771 5772 5773 5773 5773 5772 5773 5774 5775 5776
5750 5749 5749 5748 5748 5747 5747 5746 5746 5745 5745 5745 5745 5745 5745 5744 5744 5743 5743 5743 5743 5743 5744 5744 5744 5744 5745 5746 5745 5744 5745 5745 5746 5746 5746 5747 5748 5748 5749 5749 5750 5750 5751 5751 5751 5752 5752 5753 5754 5754 5755 5755 5756 5757 5757 5757 5758 5759 5760 5760 5761 5761 5760 5760 5760 5761 5761 5763 5763 5763 5765 5766 5765 5764 5766 5766 5766 5767 5768 5769 5771 5771 5770 5770 5770 5771 5772 5773
5748 5748 5747 5747 5746 5746 5745 5745 5744 5744 5744 5743 5743 5743 5743 5743 5742 5742 5742 5742 5742 5742 5742 5742 5742 5743 5744 5744 5743 5742 5743 5743 5744 5744 5745 5745 5745 5746 5746 5747 5748 5748 5748 5748 5749 5750 5751 5752 5752 5752 5752 5753 5753 5754 5754 5755 5756 5757 5757 5757 5759 5759 5758 5757 5757 5757 5757 5759 5759 5759 5761 5763 5763 5762 5763 5764 5763 5764 5765 5766 5768 5768 5768 5767 5767 5767 5768 5769
5746 5746 5745 5745 5745 5744 5744 5743 5743 5742 5742 5742 5742 5741 5742 5741 5741 5741 5741 5741 5741 5741 5740 5740 5741 5741 5742 5742 5741 5741 5741 5741 5742 5742 5742 5743 5743 5743 5744 5745 5746 5746 5746 5746 5747 5748 5749 5749 5749 5749 5750 5750 5751 5751 5752 5752 5754 5754 5754 5754 5755 5756 5755 5754 5754 5754 5753 5754 5755 5756 5758 5760 5760 5759 5760 5761 5761 5762 5762 5764 5765 5766 5765 5764 5764 5764 5765 5765
5744 5744 5743 5743 5743 5742 5742 5741 5741 5741 5740 5740 5740 5739 5740 5740 5739 5739 5740 5739 5739 5739 5739 5739 5739 5739 5740 5740 5739 5739 5739 5740 5741 5740 5740 5740 5740 5741 5742 5743 5743 5743 5743 5744 5745 5746 5747 5746 5746 5747 5748 5748 5748 5749 5750 5750 5751 5751 5751 5752 5752 5752 5752 5752 5752 5751 5750 5750 5752 5753 5755 5756 5755 5756 5757 5757 5758 5759 5759 5760 5763 5763 5762 5762 5762 5762 5761 5760
5742 5741 5741 5741 5741 5740 5740 5739 5739 5738 5738 5738 5737 5737 5737 5737 5737 5737 5738 5738 5738 5738 5737 5737 5737 5737 5737 5738 5738 5738 5738 5739 5739 5738 5738 5738 5738 5739 5740 5740 5740 5740 5740 5741 5742 5743 5744 5744 5743 5744 5745 5746 5746 5746 5747 5748 5748 5748 5748 5749 5750 5750 5749 5749 5749 5749 5748 5748 5749 5750 5752 5753 5752 5753 5754 5754 5754 5754 5754 5756 5759 5760 5759 5759 5758 5758 5758 5757
5740 5739 5739 5738 5738 5738 5738 5737 5736 5736 5735 5735 5735 5735 5735 5735 5735 5735 5736 5736 5735 5735 5735 5736 5736 5735 5735 5735 5736 5736 5736 5737 5737 5736 5735 5735 5736 5737 5737 5737 5737 5738 5738 5738 5739 5739 5741 5741 5741 5741 5742 5743 5743 5743 5744 5745 5746 5746 5746 5747 5747 5748 5747 5747 5746 5745 5745 5746 5747 5747 5748 5749 5750 5751 5752 5752 5752 5752 5751 5750 5754 5756 5756 5756 5755 5754 5754 5753
5737 5737 5736 5736 5736 5735 5735 5735 5734 5733 5733 5733 5733 5733 5733 5733 5733 5733 5734 5734 5733 5733 5733 5734 5734 5734 5734 5734 5734 5734 5734 5735 5735 5734 5733 5733 5734 5735 5735 5735 5735 5735 5735 5734 5734 5736 5738 5738 5738 5738 5739 5739 5740 5740 5741 5742 5743 5743 5744 5744 5745 5745 5745 5744 5743 5741 5742 5743 5744 5744 5744 5745 5748 5749 5750 5751 5750 5749 5748 5746 5748 5752 5753 5752 5752 5751 5750 5750
5735 5735 5734 5734 5734 5733 5733 5733 5732 5731 5731 5731 5731 5731 5731 5731 5731 5731 5731 5731 5731 5731 5732 5732 5732 5732 5732 5732 5732 5732 5733 5733 5733 5733 5732 5731 5732 5732 5732 5732 5733 5733 5732 5730 5731 5733 5735 5735 5735 5736 5736 5736 5737 5737 5738 5738 5739 5739 5740 5741 5741 5741 5742 5741 5740 5738 5738 5739 5741 5741 5740 5740 5744 5747 5748 5749 5748 5745 5744 5743 5745 5747 5748 5748 5749 5748 5747 5746
5733 5733 5732 5732 5732 5732 5731 5731 5730 5730 5730 5730 5730 5730 5729 5729 5729 5729 5729 5729 5730 5730 5730 5730 5730 5730 5730 5730 5730 5730 5730 5731 5731 5732 5730 5729 5729 5730 5730 5730 5730 5730 5729 5728 5729 5730 5731 5732 5732 5733 5733 5734 5734 5735 5735 5735 5735 5735 5736 5737 5737 5737 5738 5738 5737 5736 5735 5736 5737 5738 5738 5736 5738 5744 5744 5742 5741 5741 5741 5741 5741 5743 5744 5744 5745 5745 5744 5744
5731 5731 5731 5731 5730 5730 5730 5730 5729 5729 5729 5729 5729 5729 5728 5728 5728 5727 5727 5728 5728 5728 5728 5728 5728 5728 5728 5728 5728 5728 5728 5729 5729 5729 5728 5727 5727 5727 5727 5728 5728 5728 5726 5727 5728 5728 5728 5729 5729 5729 5730 5730 5731 5732 5731 5732 5732 5732 5732 5733 5733 5733 5734 5734 5734 5734 5732 5732 5734 5737 5737 5732 5733 5739 5739 5735 5736 5737 5737 5738 5738 5739 5740 5740 5741 5742 5742 5741
5730 5730 5729 5729 5729 5729 5728 5728 5728 5728 5728 5728 5728 5728 5727 5727 5726 5726 5726 5726 5726 5727 5727 5727 5727 5727 5727 5726 5727 5727 5726 5726 5727 5727 5726 5725 5725 5725 5725 5725 5726 5725 5724 5725 5726 5726 5725 5725 5725 5726 5727 5727 5728 5729 5728 5728 5729 5729 5729 5730 5730 5730 5730 5730 5730 5730 5730 5730 5733 5736 5733 5729 5730 5735 5734 5732 5734 5734 5734 5734 5734 5736 5736 5737 5739 5739 5739 5739
5729 5729 5728 5728 5728 5728 5728 5727 5728 5727 5727 5727 5727 5727 5727 5726 5725 5725 5725 5725 5725 5726 5726 5726 5726 5726 5725 5725 5725 5725 5725 5725 5725 5725 5724 5723 5723 5723 5723 5723 5723 5723 5723 5723 5724 5723 5723 5722 5723 5724 5725 5725 5726 5726 5726 5725 5726 5726 5726 5727 5728 5727 5727 5727 5726 5727 5727 5728 5731 5731 5728 5726 5728 5732 5731 5731 5731 5731 5731 5731 5732 5733 5733 5734 5736 5737 5737 5738
5728 5728 5727 5727 5727 5727 5727 5727 5727 5727 5727 5727 5727 5727 5726 5725 5725 5725 5724 5724 5724 5724 5725 5725 5725 5724 5724 5724 5723 5723 5723 5723 5722 5722 5722 5722 5722 5721 5721 5721 5721 5721 5721 5721 5721 5721 5720 5720 5720 5722 5723 5724 5724 5724 5723 5722 5723 5723 5724 5724 5725 5725 5725 5724 5724 5724 5724 5727 5728 5727 5725 5724 5726 5729 5729 5728 5728 5727 5728 5728 5728 5730 5731 5731 5733 5734 5735 5736
5727 5727 5727 5726 5726 5726 5726 5726 5726 5726 5726 5726 5726 5726 5725 5725 5724 5724 5724 5724 5724 5723 5723 5724 5723 5723 5722 5722 5721 5720 5720 5720 5719 5719 5719 5719 5720 5720 5719 5719 5719 5719 5719 5719 5719 5719 5719 5719 5718 5719 5720 5721 5721 5722 5721 5720 5720 5720 5721 5722 5722 5722 5721 5721 5721 5721 5722 5725 5725 5724 5722 5722 5724 5727 5727 5726 5725 5725 5725 5725 5725 5726 5728 5729 5730 5731 5732 5733
5726 5726 5726 5725 5725 5725 5725 5725 5725 5725 5725 5725 5725 5725 5724 5724 5723 5723 5723 5723 5723 5723 5723 5722 5722 5722 5721 5720 5719 5719 5718 5718 5717 5717 5716 5716 5716 5717 5718 5717 5717 5717 5717 5716 5716 5716 5717 5717 5716 5717 5718 5719 5719 5719 5720 5719 5718 5717 5718 5719 5719 5718 5718 5718 5719 5719 5720 5722 5723 5721 5720 5721 5724 5725 5725 5724 5723 5723 5723 5723 5723 5724 5725 5725 5726 5728 5729 5730
5724 5724 5724 5724 5724 5724 5724 5724 5724 5724 5724 5724 5724 5723 5723 5722 5722 5722 5722 5722 5722 5722 5721 5721 5720 5720 5720 5720 5719 5718 5717 5716 5715 5714 5714 5714 5714 5714 5715 5715 5715 5716 5715 5714 5713 5713 5714 5715 5715 5715 5715 5716 5717 5717 5717 5716 5715 5715 5715 5716 5716 5716 5716 5716 5717 5717 5717 5718 5720 5719 5719 5720 5721 5722 5723 5722 5721 5720 5720 5720 5720 5721 5722 5722 5723 5724 5725 5725
5723 5723 5723 5723 5723 5723 5723 5723 5723 5723 5723 5722 5722 5722 5721 5721 5721 5721 5721 5720 5720 5720 5720 5719 5718 5718 5718 5718 5717 5716 5715 5715 5713 5712 5712 5712 5712 5712 5713 5713 5713 5712 5712 5711 5711 5711 5711 5712 5713 5714 5713 5713 5713 5713 5713 5713 5713 5713 5713 5713 5714 5714 5714 5714 5714 5714 5713 5714 5716 5716 5717 5718 5719 5720 5721 5719 5718 5717 5716 5716 5716 5717 5717 5718 5719 5719 5720 5721
5722 5721 5721 5722 5722 5722 5721 5721 5721 5721 5721 5721 5720 5720 5720 5719 5719 5719 5719 5719 5719 5718 5718 5718 5717 5716 5716 5716 5715 5714 5713 5713 5712 5711 5711 5710 5710 5710 5710 5711 5710 5709 5708 5708 5707 5707 5707 5709 5710 5711 5711 5710 5710 5710 5710 5711 5711 5710 5710 5711 5712 5712 5711 5710 5710 5710 5710 5710 5711 5713 5714 5715 5716 5717 5717 5716 5715 5715 5714 5714 5714 5713 5714 5714 5714 5715 5715 5716
5720 5720 5720 5720 5720 5720 5720 5720 5720 5719 5719 5719 5718 5718 5718 5717 5716 5717 5717 5717 5717 5716 5716 5715 5715 5714 5714 5714 5714 5712 5711 5711 5709 5709 5709 5708 5707 5708 5708 5708 5707 5706 5705 5705 5704 5703 5704 5706 5707 5708 5708 5707 5707 5708 5708 5709 5708 5707 5708 5708 5708 5708 5707 5707 5707 5707 5707 5706 5707 5709 5712 5712 5713 5713 5713 5712 5713 5713 5712 5712 5711 5711 5711 5712 5711 5711 5711 5712
5718 5718 5718 5718 5718 5718 5718 5718 5718 5717 5717 5717 5716 5716 5715 5715 5714 5714 5714 5714 5714 5713 5713 5712 5712 5712 5711 5711 5711 5710 5709 5707 5707 5706 5706 5706 5705 5705 5705 5705 5704 5703 5703 5702 5702 5700 5700 5702 5703 5705 5706 5705 5705 5706 5706 5705 5704 5704 5705 5705 5705 5705 5705 5705 5703 5703 5703 5703 5703 5705 5707 5709 5710 5709 5709 5709 5710 5710 5709 5709 5708 5708 5709 5709 5708 5708 5709 5709
5716 5716 5716 5716 5716 5716 5716 5716 5715 5715 5715 5715 5714 5713 5713 5713 5712 5711 5711 5711 5710 5710 5710 5709 5708 5708 5708 5708 5708 5708 5706 5704 5703 5703 5702 5702 5702 5701 5701 5701 5701 5700 5699 5699 5699 5697 5697 5698 5699 5702 5704 5704 5703 5704 5703 5702 5701 5701 5702 5703 5702 5702 5701 5701 5700 5700 5700 5699 5699 5700 5702 5706 5707 5706 5706 5705 5706 5706 5705 5705 5705 5704 5705 5706 5705 5706 5706 5706
5714 5714 5714 5714 5714 5714 5713 5713 5713 5713 5713 5712 5712 5711 5711 5711 5709 5708 5708 5707 5706 5706 5706 5706 5705 5705 5705 5704 5703 5703 5703 5702 5700 5699 5698 5697 5697 5697 5697 5697 5698 5698 5696 5695 5695 5693 5693 5693 5694 5697 5700 5701 5701 5701 5700 5700 5700 5699 5699 5699 5699 5698 5697 5696 5696 5696 5696 5696 5696 5696 5697 5701 5703 5703 5703 5702 5701 5702 5702 5701 5701 5701 5701 5702 5703 5703 5703 5703
5712 5712 5712 5712 5712 5711 5711 5710 5710 5710 5710 5709 5709 5709 5708 5708 5707 5705 5704 5703 5702 5702 5702 5702 5701 5701 5701 5700 5699 5698 5698 5698 5697 5696 5695 5693 5692 5692 5692 5691 5693 5694 5692 5691 5691 5690 5689 5689 5689 5691 5693 5695 5697 5698 5697 5697 5697 5696 5695 5695 5694 5694 5693 5692 5692 5692 5692 5692 5693 5692 5692 5696 5699 5700 5700 5698 5696 5696 5697 5697 5697 5697 5697 5698 5699 5699 5700 5700
5709 5709 5709 5710 5709 5708 5708 5707 5707 5707 5707 5707 5706 5706 5705 5704 5704 5702 5701 5700 5699 5698 5697 5696 5696 5696 5695 5695 5695 5694 5693 5693 5693 5692 5691 5690 5688 5688 5687 5685 5686 5687 5688 5688 5687 5686 5686 5685 5685 5685 5686 5688 5690 5691 5692 5692 5693 5692 5691 5689 5689 5689 5688 5687 5686 5687 5688 5688 5689 5688 5687 5690 5696 5697 5695 5694 5692 5691 5691 5691 5691 5692 5693 5694 5694 5695 5696 5696
5706 5706 5706 5706 5705 5704 5704 5704 5704 5703 5703 5703 5702 5701 5701 5700 5699 5698 5698 5697 5696 5695 5694 5692 5691 5690 5689 5689 5689 5689 5687 5687 5687 5687 5686 5686 5685 5683 5681 5680 5680 5681 5683 5683 5682 5682 5682 5681 5680 5679 5680 5681 5682 5684 5686 5687 5688 5687 5686 5685 5685 5684 5683 5682 5681 5681 5683 5683 5684 5684 5682 5685 5692 5692 5690 5689 5686 5685 5685 5685 5685 5686 5687 5688 5689 5690 5690 5691
5703 5702 5703 5702 5701 5701 5700 5700 5700 5699 5699 5698 5697 5696 5696 5695 5694 5694 5693 5691 5690 5690 5690 5688 5687 5685 5685 5684 5684 5683 5682 5680 5680 5681 5681 5680 5680 5678 5677 5676 5676 5676 5677 5678 5677 5676 5676 5675 5674 5674 5674 5674 5675 5676 5678 5681 5682 5682 5681 5681 5680 5679 5677 5676 5676 5675 5676 5678 5679 5678 5677 5681 5686 5686 5685 5684 5681 5680 5679 5679 5679 5680 5681 5683 5684 5685 5686 5687
5699 5699 5699 5698 5697 5697 5696 5696 5696 5695 5695 5694 5693 5692 5691 5690 5689 5688 5687 5686 5683 5683 5684 5683 5681 5680 5679 5679 5679 5677 5676 5675 5674 5675 5675 5674 5674 5674 5673 5673 5673 5672 5672 5672 5671 5671 5671 5670 5669 5669 5668 5667 5668 5669 5671 5673 5675 5675 5675 5676 5675 5673 5671 5671 5670 5669 5670 5672 5672 5671 5671 5676 5680 5681 5680 5679 5677 5676 5675 5675 5675 5675 5676 5678 5679 5680 5682 5682
5695 5695 5694 5693 5692 5692 5691 5691 5691 5690 5690 5689 5689 5688 5687 5686 5685 5683 5682 5680 5677 5677 5677 5677 5676 5675 5674 5674 5673 5672 5671 5670 5669 5668 5668 5669 5669 5670 5670 5670 5669 5667 5666 5666 5665 5665 5665 5665 5664 5664 5663 5662 5662 5662 5663 5664 5666 5668 5668 5669 5669 5666 5665 5665 5664 5664 5665 5664 5664 5665 5666 5668 5673 5676 5675 5671 5669 5670 5670 5671 5671 5670 5671 5673 5674 5675 5676 5677
5690 5691 5690 5689 5688 5687 5686 5685 5685 5685 5684 5683 5683 5683 5682 5681 5681 5680 5679 5677 5674 5673 5672 5670 5669 5669 5669 5669 5668 5667 5666 5666 5665 5663 5662 5663 5664 5666 5666 5666 5664 5662 5660 5659 5659 5659 5659 5659 5659 5659 5659 5658 5657 5656 5656 5656 5658 5660 5661 5662 5663 5660 5658 5659 5659 5659 5659 5655 5656 5661 5662 5661 5666 5669 5665 5661 5660 5662 5664 5665 5665 5666 5667 5667 5668 5669 5670 5670
5686 5686 5686 5685 5684 5683 5682 5681 5680 5679 5678 5677 5676 5676 5675 5675 5674 5674 5673 5672 5670 5669 5667 5664 5662 5662 5663 5664 5664 5662 5661 5660 5660 5659 5658 5658 5659 5660 5660 5660 5658 5657 5655 5654 5653 5652 5652 5653 5653 5653 5652 5652 5651 5650 5650 5650 5651 5653 5654 5655 5656 5653 5652 5653 5652 5652 5651 5649 5652 5658 5657 5656 5659 5659 5656 5654 5655 5656 5657 5658 5658 5659 5660 5661 5662 5663 5663 5664
5681 5680 5680 5681 5680 5679 5678 5677 5676 5675 5673 5672 5670 5669 5669 5669 5668 5667 5666 5665 5664 5664 5663 5660 5657 5656 5657 5658 5659 5657 5655 5655 5655 5654 5654 5654 5653 5654 5654 5653 5652 5651 5650 5649 5648 5646 5646 5646 5646 5646 5645 5645 5645 5645 5645 5645 5645 5646 5648 5648 5647 5646 5647 5647 5646 5647 5646 5646 5649 5651 5650 5649 5651 5651 5650 5649 5649 5649 5649 5650 5650 5651 5652 5653 5654 5655 5656 5657
5676 5675 5675 5675 5674 5673 5672 5672 5671 5670 5668 5667 5666 5664 5663 5663 5662 5661 5660 5659 5658 5658 5658 5656 5653 5651 5650 5650 5652 5651 5649 5649 5649 5649 5648 5648 5647 5647 5647 5647 5646 5646 5644 5642 5642 5641 5641 5641 5640 5639 5637 5637 5638 5639 5640 5640 5639 5640 5641 5640 5638 5639 5641 5641 5642 5642 5641 5640 5641 5641 5642 5643 5643 5644 5645 5644 5643 5642 5642 5642 5642 5642 5644 5645 5646 5647 5648 5648
5671 5670 5670 5669 5668 5667 5666 5665 5665 5664 5662 5661 5661 5659 5658 5657 5656 5655 5654 5653 5652 5652 5652 5651 5649 5647 5645 5644 5644 5644 5643 5643 5643 5643 5642 5641 5641 5641 5640 5640 5641 5640 5639 5637 5636 5635 5635 5634 5634 5633 5630 5630 5631 5632 5633 5633 5633 5634 5635 5633 5632 5634 5635 5635 5635 5634 5633 5633 5634 5634 5635 5637 5637 5637 5638 5638 5636 5636 5635 5635 5635 5635 5636 5637 5637 5637 5637 5638
5666 5665 5665 5664 5663 5662 5661 5659 5659 5657 5655 5655 5655 5654 5653 5652 5651 5650 5648 5647 5646 5646 5646 5645 5644 5643 5641 5639 5638 5638 5637 5638 5637 5637 5635 5634 5634 5634 5635 5635 5634 5634 5634 5632 5631 5631 5630 5629 5629 5627 5624 5624 5624 5624 5624 5624 5624 5627 5628 5627 5628 5628 5629 5629 5627 5625 5625 5627 5628 5628 5629 5630 5631 5630 5631 5631 5630 5629 5628 5628 5628 5628 5629 5628 5628 5628 5628 5628